Regional Weather Roundup
Issued by NWS Upton, NY

Current Version | Previous Version | Graphics & Text | Print | Product List | Glossary Off
Versions: 1 2 3 4 5 6 7 8 9 10 11 12 13 14 15 16 17 18 19 20 21 22 23 24 25 26 27

000
ASUS41 KOKX 251105
RWROKX

REGIONAL WEATHER ROUNDUP
NATIONAL WEATHER SERVICE NEW YORK NY
700 AM EDT WED MAY 25 2016

NOTE: "FAIR" INDICATES FEW OR NO CLOUDS BELOW 12,000 FEET WITH NO
SIGNIFICANT WEATHER AND/OR OBSTRUCTIONS TO VISIBILITY.

NYZ071-072-176-178-NJZ106-104-251200-
NEW YORK CITY METRO AREA


CITY           SKY/WX    TMP DP  RH WIND       PRES   REMARKS
CENTRAL PARK   SUNNY     64  50  60 W3        30.08R
LAGUARDIA APRT MOSUNNY   68  54  60 CALM      30.04R
KENNEDY INTL   MOSUNNY   63  55  75 W7        30.06R
NEWARK/LIBERTY MOSUNNY   60  54  80 S3        30.05R
BRNX BOT. GARD   N/A     64  48  55 SW8       30.07R
TETERBORO      SUNNY     59  53  80 CALM      30.04R
$$

NYZ177-179-078>081-251200-
LONG ISLAND NEW YORK

CITY           SKY/WX    TMP DP  RH WIND       PRES   REMARKS
FARMINGDALE    SUNNY     59  56  89 CALM      30.05R
ISLIP          MOSUNNY   59  57  93 W3        30.04R
SHIRLEY        MOSUNNY   56  55  97 CALM      30.05R
RIVERHEAD        N/A     55  55 100 CALM      30.03R
WESTHAMPTON    FOG       49  46  90 CALM      30.05S VSB 1/2
EAST HAMPTON   FOG       49  48  98 CALM      30.02S VSB 1/2
MONTAUK POINT    N/A     56  56 100 CALM      30.03S
$$

NYZ052-065-067-251200-
HUDSON VALLEY

CITY           SKY/WX    TMP DP  RH WIND       PRES   REMARKS
WHITE PLAINS   SUNNY     60  51  72 W3        30.04R
NEWBURGH       SUNNY     57  52  82 W8        30.05R
MONTGOMERY     SUNNY     53  51  93 S7        30.05R
POUGHKEEPSIE   SUNNY     55  52  89 CALM      30.03R
ALBANY         MOSUNNY   55  53  93 S6        30.03R
$$

NJZ001-105-106-008-010-013-015-019>022-104-251200-
NEW JERSEY

CITY           SKY/WX    TMP DP  RH WIND       PRES   REMARKS
NEWARK/LIBERTY MOSUNNY   60  54  80 S3        30.05R
TETERBORO      SUNNY     59  53  80 CALM      30.04R
CALDWELL       SUNNY     55  51  86 CALM      30.06R
MORRISTOWN     MOSUNNY   48  48 100 CALM      30.06R
SOMERVILLE     SUNNY     50  49  96 CALM      30.06R
SUSSEX         SUNNY     50  48  93 CALM      30.08R
ANDOVER          N/A     52  52 100 CALM      30.09R
TRENTON        SUNNY     60  52  74 NW3       30.07R
MILLVILLE      SUNNY     57  53  86 W5        30.10R
ATLANTIC CITY  SUNNY     58  53  84 W3        30.09R
WRIGHTSTOWN    NOT AVBL
TOMS RIVER     SUNNY     54  48  82 CALM      30.08R
BELMAR         SUNNY     58  53  84 W7        30.08R
$$

PAZ047>061-062-071-251200-
EASTERN PENNSYLVANIA

CITY           SKY/WX    TMP DP  RH WIND       PRES   REMARKS
PHILADELPHIA   MOSUNNY   61  52  72 SW6       30.10R
ALLENTOWN      SUNNY     54  51  90 SW5       30.09R
SCRANTON       SUNNY     51  44  77 SE3       30.11R
$$

CTZ002-004>006-009-010-012-RIZ004-006-007-MAZ004-011-015-251200-
SOUTHERN NEW ENGLAND
 IN CT

CITY           SKY/WX    TMP DP  RH WIND       PRES   REMARKS
BRADLEY INTL   FOG       54  53  97 S3        30.00R VSB 1
HARTFORD       SUNNY     58  55  90 CALM      30.02R
DANBURY        SUNNY     53  51  93 CALM      30.05R
WTRBRY/OXFORD  SUNNY     54  52  94 CALM      30.05R
BRIDGEPORT     SUNNY     59  57  93 W3        30.03R
MERIDEN        FOG       53  51  93 CALM      30.03R VSB<1/4
NEW HAVEN      FOG       54  54 100 CALM      30.03R VSB 1/8
CHESTER        FAIR      57  57 100 CALM      30.03R
GROTON         FOG       53  53 100 S3        30.02R VSB 1/4
WILLIMANTIC    FOG       52  50  93 CALM      30.02R VSB<1/4

 IN RI

CITY           SKY/WX    TMP DP  RH WIND       PRES   REMARKS
PROVIDENCE     PTSUNNY   56  54  93 W5        30.03R FOG
BLOCK ISLAND   CLOUDY    56  55  97 SW5       30.03R FOG
WESTERLY       FOG       55  52  89 CALM      30.02R VSB<1/4

 IN MA

CITY           SKY/WX    TMP DP  RH WIND       PRES   REMARKS
BOSTON         CLOUDY    56  53  90 SW7       30.00S
WORCESTER      SUNNY     54  53  97 SW7       30.00S
WESTFIELD      FOG       52  51  97 SW5       30.01R VSB 1/2
PROVINCETOWN   LGT RAIN  51  51 100 NW6       30.02S VSB 1/2
NANTUCKET      CLOUDY    54  52  93 NW9       30.02S
$$

ANZ330-335-338-340-345-350-353-355-251200-
COASTAL MARINE OBSERVATIONS


STATION/POSITION TIME  SKY/WX   TEMP    WIND        PRES    VSBY  WAVE
                                AIR SEA DIR/SP/G                  HT/PER
                 (UTC)          (F)     (DEG/KT/KT) (MB)    (MI)  (FT/S)
NY HARB ENTRANCE 0950            60 57  290/  8/ 10 1016.7          2/ 8
20S FIRE ISLAND  0950            58 55  230/  2/  4 1016.7          3/ 9
GREAT SOUTH BAY  1030            62 63  220/  2/  2   N/A
23 SSW MONTAUK P 1050            56 54  240/  4/  4 1016.5          3/ 8
15 E BARNEGAT LI 1022               55                N/A           3/ 9
HUDSON CANYON    0950            55 53              1017.2          3/11
KINGS POINT      1000            60 56              1016.5
EXECUTION ROCKS  NOT AVBL
CENTRAL LI SOUND 1000            55      CALM  /  2   N/A           0
EASTERN LI SOUND 1000            52 52  240/  4/  6   N/A
ROBBINS REEF     1000            61     260/  6/  6 1016.4
$$


>>>>>>>>>>>>>>>>>>>>>>>>>>>> KEY <<<<<<<<<<<<<<<<<<<<<<<<<<<
>                                                          <
>     SKY/WX - SKY CONDITION/PRESENT WEATHER               <
>     TMP    - TEMPERATURE IN FAHRENHEIT                   <
>     DP     - DEWPOINT IN FAHRENHEIT                      <
>     RH     - RELATIVE HUMIDITY IN PERCENT                <
>     WIND   - DIRECTION AND SPEED IN MPH                  <
>     PRES   - MEAN SEA LEVEL PRESSURE IN INCHES OF HG     <
>     WCI    - WIND CHILL INDEX                            <
>     VSB    - VISIBILITY IN MILES                         <
>     HX     - HEAT INDEX                                  <
>     TC     - TEMPERATURE IN CELSIUS                      <
>     VRB    - VARIABLE WIND DIRECTION                     <
>                                                          <
>>>>>>>>>>>>>>>>>>>>>>>>>>>> KEY <<<<<<<<<<<<<<<<<<<<<<<<<<<






USA.gov is the U.S. government's official web portal to all federal, state and local government web resources and services.